Regional Weather Roundup
Issued by NWS

Home | Current Version | Previous Version | Graphics & Text | Print | Product List | Glossary On
Versions: 1 2 3 4 5 6 7 8 9 10 11 12 13 14 15 16 17 18 19 20 21 22 23 24 25 26 27 28 29 30 31 32 33 34 35 36 37 38 39 40 41 42 43 44 45 46 47 48 49 50
000
ASUS43 KMPX 190101
RWRMN
WEATHER ROUNDUP FOR MINNESOTA
NATIONAL WEATHER SERVICE TWIN CITIES/CHANHASSEN MN
700 PM CST THU JAN 18 2018


NOTE: "FAIR" INDICATES FEW OR NO CLOUDS BELOW 12,000 FEET WITH NO
SIGNIFICANT WEATHER AND/OR OBSTRUCTIONS TO VISIBILITY. N/A MEANS
CURRENT SKY AND/OR WEATHER CONDITIONS ARE NOT AVAILABLE.

MNZ060>063-068>070-190200-
   Twin Cities Metro

CITY           SKY/WX    TMP DP  RH WIND       PRES   REMARKS
TWIN CITIES    CLOUDY    36  28  73 S5        29.79R
ST PAUL        FAIR      29  24  82 SE7       29.80S WCI  22
CRYSTAL        FAIR      26  21  81 CALM      29.77S
BLAINE         CLOUDY    32  27  80 S3        29.77S
LAKEVILLE      FAIR      28  27  93 CALM      29.79R
EDEN PRAIRIE   FAIR      35  28  75 S3        29.77S
SOUTH ST PAUL  FAIR      29  24  81 CALM      29.78F
LAKE ELMO      FAIR      28  25  86 S5        29.79S WCI  23
$$
MNZ001>005-007-008-013>017-022>024-027-028-190200-
   Northwest Minnesota

CITY           SKY/WX    TMP DP  RH WIND       PRES   REMARKS
BEMIDJI        FAIR      21  20  96 S3        29.66F
HALLOCK        FAIR      23  19  86 S14       29.61F WCI  11
ROSEAU         FAIR      25  19  80 S8        29.63F WCI  16
WARROAD        FAIR      21  18  86 CALM      29.64F
CROOKSTON      FAIR      25  21  86 S13       29.65F WCI  13
FOSSTON        FAIR      19  16  86 S8        29.67F WCI   9
DETROIT LAKES  FAIR      27  21  80 S5        29.71S WCI  21
MOORHEAD       FAIR      27  21  80 S9        29.71F WCI  17
PARK RAPIDS    FAIR      25  19  78 S3        29.69S
MAHNOMEN       FAIR      22  18  84 S9        29.68F WCI  11
$$
MNZ006-009>011-018-025>026-190200-
   North Central Minnesota

CITY           SKY/WX    TMP DP  RH WIND       PRES   REMARKS
BAUDETTE       CLOUDY    28  24  85 SW5       29.65S WCI  23
FLAG ISLAND    CLOUDY    25  21  86 S3        29.63F
INTL FALLS     CLOUDY    28  22  78 SW5       29.67S WCI  23
WASKISH        FAIR      28  25  86 SW3       29.67F
BIG FORK       FAIR      27  23  86 CALM      29.68R
LONGVILLE      FAIR      21  19  93 CALM      29.69F
GRAND RAPIDS   FAIR      22  20  92 S3        29.70F
CRANE LAKE     CLOUDY    27  21  80 CALM      29.70F
ORR            CLOUDY    27  21  80 CALM      29.65F
COOK           CLOUDY    27  23  86 CALM      29.68F
WALKER         FAIR      27  22  81 SW3       29.69R
$$
MNZ012-019>021-037-190200-
   Northeast Minnesota

CITY           SKY/WX    TMP DP  RH WIND       PRES   REMARKS
DULUTH         FAIR      25  22  88 W3        29.70F
ELY            CLOUDY    28  23  80 W8        29.68F WCI  20
HIBBING        FAIR      25  24  96 CALM      29.68F
EVELETH        CLOUDY    28  21  77 CALM      29.70F
DULUTH HARBOR  FAIR      30  27  86 W5        29.74S WCI  25
TWO HARBORS    FAIR      28  23  80 CALM      29.70S
SILVER BAY     MOCLDY    30  27  86 CALM      29.69F
GRAND MARAIS     N/A     35  28  75 W3        29.71S
G MARAIS ARPRT CLOUDY    28  21  74 W5        29.66F WCI  23
$$
MNZ029>031-032-039>041-046>048-054>057-064-190200-
   West Central Minnesota

CITY           SKY/WX    TMP DP  RH WIND       PRES   REMARKS
FERGUS FALLS   FAIR      28  25  86 S3        29.72S
WHEATON        CLOUDY    34  25  69 CALM      29.75F
MORRIS         CLOUDY    32  27  80 S3        29.73S
ALEXANDRIA     FAIR      26  22  84 S3        29.73F
ELBOW LAKE     FAIR      28  26  92 E5        29.73F WCI  23
WADENA         FAIR      25  19  80 SW3       29.71F
GLENWOOD       FAIR      28  25  86 S3        29.74F
APPLETON       CLOUDY    34  28  80 S3        29.74F
BENSON         CLOUDY    30  27  86 SW5       29.76S WCI  25
ORTONVILLE     CLOUDY    34  27  75 CALM      29.74F
MADISON        CLOUDY    36  30  80 SW6       29.75F
WILLMAR        FAIR      34  28  80 CALM      29.77F
$$
MNZ033>034-036-042>043-049>051-058-059-190200-
   Central Minnesota

CITY           SKY/WX    TMP DP  RH WIND       PRES   REMARKS
ST CLOUD       FAIR      26  23  88 S5        29.75F WCI  20
SAUK CENTRE      N/A     28  25  91 S3        29.74F
PAYNESVILLE    FAIR      29  27  90 CALM      29.75F
AITKIN         FAIR      19  18  93 CALM      29.70F
PINE RIVER     FAIR      21  19  93 CALM      29.74F
BRAINERD       FAIR      24  19  81 CALM      29.71F
STAPLES        FAIR      19  18  93 CALM      29.72S
LONG PRAIRIE   FAIR      23  21  93 S3        29.73F
LITTLE FALLS     N/A    N/A N/A N/A CALM        N/A
LITCHFIELD     FAIR      30  28  93 CALM      29.76F
BUFFALO        FAIR      29  24  82 CALM      29.78S
MAPLE LAKE     FAIR      30  26  86 MISG      29.77S
HUTCHINSON     FAIR      34  31  88 S6        29.78S WCI  29
$$
MNZ037-044-045-052-053-190200-
   East Central Minnesota

CITY           SKY/WX    TMP DP  RH WIND       PRES   REMARKS
PRINCETON      FAIR      28  25  86 CALM      29.75F
MORA           FAIR      21  18  86 CALM      29.76F
CAMBRIDGE      FAIR      28  19  69 S3        29.76F
RUSH CITY      FAIR      26  21  83 S5        29.76F WCI  20
MOOSE LAKE     FAIR      28  25  86 CALM      29.71F
HINCKLEY       FAIR      28  23  80 SW3       29.74F
CLOQUET        FAIR      30  25  80 W3        29.71S
MCGREGOR       FAIR      28  27  93 S3        29.72S
$$
MNZ071>073-080-081-089-090-097-098-190200-
   Southwest Minnesota

CITY           SKY/WX    TMP DP  RH WIND       PRES   REMARKS
MONTEVIDEO     CLOUDY    36  28  75 W6        29.76S
GRANITE FALLS  CLOUDY    35  31  85 S12       29.77F WCI  26
CANBY          CLOUDY    39  28  65 SW7       29.76F
MARSHALL       CLOUDY    34  28  79 W7        29.78S WCI  28
REDWOOD FALLS  CLOUDY    34  28  79 SW12      29.77F WCI  25
OLIVIA         CLOUDY    34  30  86 SW9       29.76F WCI  26
PIPESTONE      CLOUDY    28  25  86 SW6       29.79S WCI  22
WINDOM         CLOUDY    36  19  51 S7        29.81S
WORTHINGTON    CLOUDY    34  28  79 SW9       29.82S WCI  27
JACKSON        CLOUDY    34  28  80 SW9       29.83R WCI  26
SLAYTON        CLOUDY    33  28  83 SW12      29.80S WCI  24
$$
MNZ065>067-074>077-082>085-091>093-190200-
   South Central Minnesota

CITY           SKY/WX    TMP DP  RH WIND       PRES   REMARKS
MANKATO        FAIR      36  29  75 SW13      29.80F
NEW ULM        CLOUDY    34  28  80 SW9       29.79S WCI  26
ST JAMES       CLOUDY    34  28  80 S5        29.81F WCI  30
FAIRMONT       CLOUDY    34  28  79 SW10      29.83F WCI  26
FARIBAULT      FAIR      32  27  80 S8        29.80F WCI  25
OWATONNA       FAIR      32  27  80 S9        29.82R WCI  24
WASECA         FAIR      32  28  86 S10       29.82S WCI  24
ALBERT LEA     FAIR      32  23  69 SW8       29.83S WCI  25
$$
MNZ078>079-086>088-094>096-190200-
   Southeast Minnesota

CITY           SKY/WX    TMP DP  RH WIND       PRES   REMARKS
ROCHESTER      FAIR      28  23  81 S12       29.83S WCI  18
RED WING       FAIR      30  21  69 CALM      29.81R
STANTON        FAIR      32  26  80 S9        29.78F WCI  24
DODGE CENTER   FAIR      30  25  80 S13       29.81S WCI  20
WINONA         FAIR      30  23  74 CALM      29.83F
PRESTON        FAIR      29  22  75 SW12      29.84F WCI  20
$$
ABBREVIATIONS USED IN REMARKS
   TC - TEMPERATURES IN CELSIUS
  WCI - WIND CHILL INDEX
   HX - HEAT INDEX
  VSB - VISIBILITY
$$




USA.gov is the U.S. government's official web portal to all federal, state and local government web resources and services.